Regional Weather Roundup
Issued by NWS Sterling, VA

Home | Current Version | Previous Version | Graphics & Text | Print | Product List | Glossary On
Versions: 1 2 3 4 5 6 7 8 9 10 11 12 13 14 15 16 17 18 19 20 21 22 23 24 25 26 27 28 29 30 31 32 33 34 35 36 37 38 39 40 41 42 43 44 45 46 47 48 49 50
000
ASUS41 KLWX 120210
RWRLWX

REGIONAL WEATHER ROUNDUP
NATIONAL WEATHER SERVICE BALTIMORE MD/WASHINGTON DC
900 PM EST MON DEC 11 2017

Note: "FAIR" indicates few or no clouds below 12,000 feet
with no significant weather and/or obstructions to visibility.
 TC=TEMPERATURE CELSIUS

 * =Non NWS site. Station does not report precipitation (e.g. rain,
    snow, etc.), thunder, or fog.

DCZ001-MDZ009-015-VAZ040>042-051-053>054-120300-
WASHINGTON METRO

CITY           SKY/WX    TMP DP  RH WIND       PRES   REMARKS
WASHINGTON NAT MOCLDY    42  32  67 S12       29.95F
DULLES         PTCLDY    40  30  67 SE12      29.91F
ANDREWS AFB    MOCLDY    37  29  74 S8        29.93F
FT BELVOIR     CLOUDY    39  30  70 SE5       29.94F
QUANTICO       PTCLDY    43  34  70 S13       29.96F
COLLEGE PARK*  PTCLDY    37  27  68 CALM      29.94F
LEESBURG*      CLEAR     39  32  75 S8        29.91F
MANASSAS*      CLEAR     35  28  75 SE8       29.92F WCI  29
GAITHERSBURG*  CLEAR     36  26  67 SE8       29.91F

$$

MDZ006>007-011-014-120300-
BALTIMORE METRO

CITY           SKY/WX    TMP DP  RH WIND       PRES   REMARKS
BWI AIRPORT    MOCLDY    38  32  79 S3        29.94F
MD SCIENCE CTR   N/A     43  31  62 MISG      29.95F
MARTIN STATE   CLOUDY    43  32  65 SE9       29.97F
ANNAPOLIS      CLOUDY    42  32  67 S10       29.95F
FORT MEADE*    PTCLDY    36  32  87 SE5       29.97F

$$

MDZ012-015-019>023-120300-
MARYLAND EASTERN SHORE

CITY           SKY/WX    TMP DP  RH WIND       PRES   REMARKS
OCEAN CITY     CLEAR     31  29  92 CALM      30.00F
SALISBURY      CLEAR     30  28  92 CALM      29.99F
BAY BRIDGE AP* CLOUDY    39  30  70 SE9       29.96F
CAMBRIDGE*     PTCLDY    32  28  86 SE7       29.99S
EASTON*        CLEAR     37  28  70 SE7       30.01F

$$

MDZ017>025-120300-
SOUTHERN MARYLAND

CITY           SKY/WX    TMP DP  RH WIND       PRES   REMARKS
PATUXENT RIVER PTCLDY    40  31  70 S7        29.97F
ST INIGOES     CLEAR     43  34  70 SE9       29.97S
LEONARDTOWN*   PTCLDY    34  32  93 CALM      29.98F

$$

MDZ003>005-120300-
NORTH CENTRAL MARYLAND

CITY           SKY/WX    TMP DP  RH WIND       PRES   REMARKS
FREDERICK*     CLEAR     37  25  60 S5        29.92F
HAGERSTOWN APT CLEAR     41  25  53 SE8       29.85F
WESTMINSTER*   CLEAR     37  30  75 SE9       29.89F

$$

MDZ501>502-120300-
WESTERN MARYLAND

CITY           SKY/WX    TMP DP  RH WIND       PRES   REMARKS
OAKLAND*       CLOUDY    32  18  55 SE9       29.70F WCI  24
CUMBERLAND*    PTCLDY    39  23  52 NW5       29.85F

$$

VAZ025>031-120300-
SHENANDOAH VALLEY

CITY           SKY/WX    TMP DP  RH WIND       PRES   REMARKS
WINCHESTER*    PTCLDY    41  25  52 S7        29.84F
FRONT ROYAL*   FAIR      41  27  56 MISG      29.84F
LURAY*         PTCLDY    34  28  80 S5        29.85F
NEW MARKET*    PTCLDY    31  26  81 SW5       29.84F
STAUNTON*      CLEAR     33  25  72 SW5       29.87F
WAYNESBORO*    CLEAR     34  26  70 S5        29.86F

$$

WVZ021-048>050-054>055-120300-
EASTERN WEST VIRGINIA PANHANDLE

CITY           SKY/WX    TMP DP  RH WIND       PRES   REMARKS
MARTINSBURG    PTCLDY    39  24  55 SE5       29.84F
PETERSBURG*    CLOUDY    31  25  80 CALM      29.80F

$$

VAZ036>039-050-120300-
CENTRAL FOOTHILLS

CITY           SKY/WX    TMP DP  RH WIND       PRES   REMARKS
CHARLOTTESVILL CLEAR     36  26  67 S8        29.89F
CULPEPER*      FAIR      32  26  77 CALM      29.92F
ORANGE*        CLEAR     32  27  80 CALM      29.92F
GORDONSVILLE*  CLEAR     31  27  86 CALM      29.91F
WARRENTON*     CLEAR     41  24  51 S5        29.91F

$$

VAZ055>057-120300-
NORTH AND CENTRAL PIEDMONT

CITY           SKY/WX    TMP DP  RH WIND       PRES   REMARKS
FREDERICKSBRG* CLEAR     38  30  73 SE7       29.94F
STAFFORD*      CLEAR     37  28  69 CALM      29.98F

$$

NCZ024-NYZ072-PAZ021-071-VAZ022-071-120300-
OTHER REGIONAL OBSERVATIONS

CITY           SKY/WX    TMP DP  RH WIND       PRES   REMARKS
NEW YORK CITY  CLOUDY    38  22  52 CALM      30.01F
PHILADELPHIA   MOCLDY    36  24  62 SE3       29.99F
PITTSBURGH     CLOUDY    36  22  56 S3        29.74F
ROANOKE        CLEAR     42  28  57 CALM      29.90F
RICHMOND       CLEAR     38  30  73 CALM      29.95F
RALEIGH        PTCLDY    42  29  59 S6        29.98F

$$

ANZ530>537-120300-
MARINE OBSERVATIONS

STATION/POSITION TIME  TEMP    WIND        PRES
                       AIR SEA DIR/SP/G
                 (UTC) (F)     (DEG/KT/KT) (MB)
THOMAS PT LIGHT  0200   44 48  160/ 17/ 20   N/A
BALT KEY BRIDGE  0142   42     150/ 13/ 15 1013.9F
COVE POINT       0142   44     180/ 18/ 19 1015.4F
LEWISETTA        0142   41 44  180/  5/  6 1014.9F
SOLOMONS ISLAND  0142   43 48  160/  7/  9 1014.6F
PINEY POINT      0142          190/ 13/ 16   N/A

$$




USA.gov is the U.S. government's official web portal to all federal, state and local government web resources and services.